FLOCK 3P-81 (42043 NORAD) Tracking and Keplerian Element Data

This shows tracking and keplerian element data for the satellite.

Feedback or suggestion? Click here.




ElementValue
Catalog42043
NameFLOCK 3P-81
Epoch Orbit16576
Epoch Day44.85438466
Epoch Year2020
RAAN114.5795
Inclination97.3825
Eccentricity0.000864
Argument of Perigee32.4298
Mean Anonmoly327.747
Mean Motion15.25917106
Decay Rate9.38E-06
L11 42043U 17008CZ 20044.85438466 .00000938 00000-0 39363-4 0 9991
L22 42043 97.3825 114.5795 0008640 32.4298 327.7470 15.25917106165769

Live tracking and technical data element details for FLOCK 3P-81 (NORAD 42043). FLOCK 3P-81 can be tracked NOW for your location showing map with azimuth and elevation plus other details from your city location.

Track the satellite on the map from your city or location and see movement details for azimuth, elevation, latitude, longitude, range, height, and movement on the map or in text.







IsCatalogInMostPopularTable: catalog: 42043, numindb: 330
Update: records affected: 1



GetName: 42043 FLOCK 3P-81

Hit Count: updated at: Mon, 17 Feb 2020 03:33:02 GMT